Regional Weather Roundup
Issued by NWS Grand Forks, ND

Home | Current Version | Previous Version | Text Only | Print | Product List | Glossary Off
Versions: 1 2 3 4 5 6 7 8 9 10 11 12 13 14 15 16 17 18 19 20 21 22 23 24 25 26 27 28 29 30 31 32 33 34 35 36 37 38 39 40 41 42 43 44 45 46 47 48 49 50

000
ASUS43 KFGF 260810
RWRFGF
PRAIRIE TO PINES  WEATHER ROUNDUP
NATIONAL WEATHER SERVICE EASTERN NORTH DAKOTA/GRAND FORKS ND
300 AM CDT THU MAY 26 2016

 **SATELLITE DATA USED TO AUGMENT SKY COVER AT AUTOMATED STATIONS**
 *****  WEATHER ACROSS EASTERN NORTH DAKOTA  *****

CITY           SKY/WX    TMP DP  RH WIND       PRES   REMARKS
GRAND FORKS    CLOUDY    57  55  93 S5        29.69S
GRAND FRKS AFB CLOUDY    56  56 100 W2        29.69S
GRAND FRKS NWS   N/A     55 N/A N/A MISG        N/A
DEVILS LAKE    MOCLDY    53  53 100 NW8       29.71F
FARGO          FOG       53  51  93 SE3       29.72S VSB 1
WAHPETON ARPT  CLOUDY    54  50  87 W6        29.72F
$$

 ***** WEATHER ACROSS CENTRAL AND WESTERN NORTH DAKOTA  *****

CITY           SKY/WX    TMP DP  RH WIND       PRES   REMARKS
BISMARCK       CLEAR     49  47  93 SW3       29.81R
MINOT          CLOUDY    58  54  86 SW9       29.73F
JAMESTOWN      CLEAR     54  53  97 SW5       29.72F
MINOT AFB      FOG       54  54 100 NW5       29.72S VSB 3/4
GARRISON         N/A     53  50  89 W13       29.77R
WILLISTON      CLEAR     46  44  93 CALM      29.81S
DICKINSON      CLEAR     42  39  89 W8        29.81S
HETTINGER      CLEAR     39  36  89 CALM      29.86S
$$

 *****  OTHER AIRPORT OBSERVATIONS IN OUR AREA  *****

CITY           SKY/WX    TMP DP  RH WIND       PRES   REMARKS
WALHALLA       FAIR      55  55 100 W9        29.64F
GRAFTON AIRPOR   N/A     57  57 100 W12       29.69S
VALLEY CITY AR FAIR      54  54 100 W12       29.75R
CANDO          CLOUDY    55  55 100 N6        29.74F
CAVALIER APRT  CLOUDY    57  57 100 SW9       29.65R
GWINNER        FAIR      54  52  94 SW7       29.75S
SHEYENNE NWR     N/A     51  51  98 W5        29.95S
ROLLA          RAIN      54  54 100 N7        29.75S
 ***** THE ABOVE OBSERVATIONS ARE NON NWS ARE NOT QUALITY
       CONTROLLED AND MAY MIS-REPORT RAIN FOR SNOW...
$$

  *****  WEATHER ACROSS NORTHERN MINNESOTA  *****

CITY           SKY/WX    TMP DP  RH WIND       PRES   REMARKS
FLAG ISLAND    CLOUDY    57  55  94 S26       29.70F
WARROAD        CLOUDY    61  55  82 S10G16    29.71R
ROSEAU         CLOUDY    59  54  82 S14G20    29.69S
HALLOCK        CLOUDY    57  57 100 SW15      29.66R
THF RVR FALLS  CLOUDY    57  54  88 SW5       29.73R
BAUDETTE       CLOUDY    56  53  90 SE9       29.73F
WASKISH        RAIN      55  54  94 CALM      29.75S
CROOKSTON      CLOUDY    57  57 100 W3        29.72R
STEPHEN NDAWN    N/A     57  55  94 SW7         N/A
GREENBUSH NDAW   N/A     57  57 100 S10         N/A
$$
  *****  WEATHER ACROSS CENTRAL AND WEST MINNESOTA  *****

CITY           SKY/WX    TMP DP  RH WIND       PRES   REMARKS
FOSSTON        MOCLDY    55  54  94 CALM      29.72S
BEMIDJI        CLOUDY    55  55  97 E8        29.73F
PARK RAPIDS    CLOUDY    59  55  87 NE5       29.74F
ELBOW LAKE     FAIR      56  53  87 SW8       29.73S
WADENA         CLEAR     55  55 100 SE5       29.74R FOG
DETROIT LAKES  PTCLDY    55  54  94 E3        29.73F
MOORHEAD       CLEAR     54  54 100 CALM      29.74R
FERGUS FALLS     N/A     57  57 100 CALM      29.69F FOG
MORRIS MN      CLOUDY    57  52  82 SW3       29.74R
STAPLES        CLOUDY    59  57  94 S5        29.75R FOG
$$
  *****  WEATHER ELSEWHERE ACROSS MINNESOTA  *****

CITY           SKY/WX    TMP DP  RH WIND       PRES   REMARKS
DULUTH         FOG       44  43  96 SE7       29.83R VSB 1/4
INTRNTL FALLS  MOCLDY    56  50  80 SE7       29.78S
ELY            MOCLDY    46  46 100 SW3       29.84R
CLOQUET        FOG       45  43  93 E8        29.82F VSB 1/4
WHEATON        CLOUDY    61  57  88 W6        29.74F
BRAINERD       FOG       56  56 100 SE7       29.76F VSB 3/4
HIBBING        CLOUDY    48  48 100 CALM      29.80F
ALEXANDRIA     CLOUDY    61  48  62 W7        29.75S
SAINT CLOUD    CLOUDY    60  60 100 SE6       29.77S FOG
MINNEAPOLIS    TSTM      67  63  87 S22G32    29.79S FOG
$$

  *****  WEATHER ACROSS SOUTH DAKOTA  *****

CITY           SKY/WX    TMP DP  RH WIND       PRES   REMARKS
SIOUX FALLS    CLOUDY    59  56  89 W3        29.80S
BROOKINGS      CLOUDY    55  52  89 S6        29.81R
WATERTOWN      CLOUDY    58  53  84 W12       29.79S
HURON          PTCLDY    54  50  86 W7        29.83R
SISSETON         N/A     59  54  83 W18       29.70F
ABERDEEN       CLEAR     53  49  86 W7        29.79S
MITCHELL       PTCLDY    60  53  77 NW8       29.84R
PIERRE         CLEAR     53  48  83 W5        29.84R
MOBRIDGE       CLEAR     51  47  86 SE5       29.82R
RAPID CITY     CLEAR     46  43  89 CALM      29.90S
$$

  *****  SOME WEATHER IN NEARBY STATES *****

CITY           SKY/WX    TMP DP  RH WIND       PRES   REMARKS
GLASGOW MT     CLOUDY    47  42  83 NW5       29.83S
GREAT FALLS MT MOCLDY    45  42  89 W7        29.93F
CHEYENNE WY    CLEAR     41  33  73 W9        30.04S
SCOTTSBLUFF NE CLEAR     46  42  86 NW5       29.94S
OMAHA NE       CLOUDY    64  58  80 E13G23    29.88R
DES MOINES IA  CLOUDY    66  61  82 S8        29.82R THUNDER
DAVENPORT IA   PTCLDY    72  63  73 S10       29.86F
CHICAGO IL     CLEAR     62  61  96 S3        29.91F
EAU CLAIRE WI  FOG       57  57 100 N3        29.79S VSB 1/2
LA CROSSE WI   CLEAR     64  62  93 E3        29.80F
$$

  *****  SOME NATIONAL WEATHER *****

CITY           SKY/WX    TMP DP  RH WIND       PRES   REMARKS
LA GUARDIA NY  MOCLDY    76  54  46 W5        30.06S
RALEIGH NC     PTCLDY    67  61  81 CALM      30.15S
ATLANTA GA     CLOUDY    71  58  63 CALM      30.15S
NEW ORLEANS LA PTCLDY    75  72  90 S7        30.06F
OKLAHOMA CITY  CLOUDY    77  73  87 S18G24    29.86F
ALBUQUERQUE NM CLEAR     56  14  19 S3        29.98F
SALT LAKE CITY PTCLDY    55  44  66 CALM      30.02S
LOS ANGELES CA PTCLDY    58  53  84 SW6       30.06F
BOISE ID       CLEAR     53  43  68 S9        30.00R
SEATTLE WA     MOCLDY    53  43  68 S9        30.21S
$$

*** WEATHER ACROSS MANITOBA...SASKATCHEWAN AND ONTARIO ***
                ***ONTARIO***

CITY           SKY/WX    TMP DP  RH WIND       PRES   REMARKS
GERALDTON      CLOUDY    55  43  62 E5        29.97F
THUNDER BAY    MOCLDY    48  46  93 SE2       29.86F
SIOUX LOOKOUT  NOT AVBL
TORONTO        PTCLDY    66  55  68 VRB2      30.03S
BIG TROUT LK   MOCLDY    52  45  76 SE12      29.92F
PICKLE LAKE    NOT AVBL
DRYDEN         CLOUDY    54  48  82 E10       29.81S
KENORA         CLOUDY    55  52  88 SE9G17    29.75F
$$
                *** MANITOBA***

CITY           SKY/WX    TMP DP  RH WIND       PRES   REMARKS
BRANDON        LGT RAIN  54  54 100 NE12      29.76F
DAUPHIN        LGT RAIN  55  54  94 VRB2      29.81S
ISLAND LAKE    MOCLDY    57  50  77 E3        29.84F
PILOT MOUND      N/A     54  52  94 NW10        N/A
THE PAS        CLEAR     46  43  87 CALM      29.85S
THOMPSON       PTCLDY    43  41  93 CALM      29.84S
WINNIPEG       LGT RAIN  55  55 100 NE22G29   29.63F FOG
LYNN LAKE      CLEAR     50  46  87 N5        29.85R
GILLAM         PTCLDY    52  46  82 S7        29.84F
$$
                ***SASKATCHEWAN***

CITY           SKY/WX    TMP DP  RH WIND       PRES   REMARKS
ESTEVAN        CLOUDY    54  52  94 VRB2      29.76S
KINDERSLEY     PTCLDY    48  45  87 NE5       29.90S
LLOYDMINSTER   CLEAR     48  45  87 S8        29.89S
PRINCE ALBERT  PTCLDY    48  45  87 CALM      29.87R
REGINA         LGT RAIN  52  52 100 N12       29.83S
YORKTON        LGT RAIN  54  52  94 N9        29.85S
N. BATTLEFORD  CLEAR     45  45 100 VRB2      29.91S
LA RONGE       NOT AVBL
SASKATOON      CLOUDY    55  46  71 NE5       29.88S
SWIFT CURRENT  LGT RAIN  50  50 100 NW2       29.87F FOG
$$
NOTE: THESE ARE AUTOMATED STATIONS WITH LIMITED QUALITY CONTROL
      "FAIR" INDICATES FEW OR NO CLOUDS BELOW 12,000 FEET WITH NO
      SIGNIFICANT WEATHER AND/OR OBSTRUCTIONS TO VISIBILITY.
      SKY/WX - SKY CONDITION AND SIGNIFICANT WEATHER.
      TMP - AIR TEMPERATURE.    DP   - DEWPOINT TEMPERATURE.
      RH  - RELATIVE HUMIDITY.  PRES - PRESSURE.
      HX  - HEAT INDEX.         WCI  - WIND CHILL INDEX.
$




USA.gov is the U.S. government's official web portal to all federal, state and local government web resources and services.